Regional Weather Roundup
Issued by NWS Newport/Morehead, NC

Current Version | Previous Version | Graphics & Text | Print | Product List | Glossary On
Versions: 1 2 3 4 5 6 7 8 9 10 11 12 13 14 15 16 17 18 19 20 21 22 23 24 25 26 27 28 29 30 31 32 33 34 35 36 37 38 39 40 41 42 43 44 45 46 47 48 49 50
000 ASUS42 KMHX 182216 RWRMHX WEATHER ROUNDUP FOR EASTERN NORTH CAROLINA NATIONAL WEATHER SERVICE NEWPORT/MOREHEAD CITY NC 500 PM EST SAT NOV 18 2017 NOTE: "FAIR" INDICATES FEW OR NO CLOUDS BELOW 12,000 FEET WITH NO SIGNIFICANT WEATHER AND/OR OBSTRUCTIONS TO VISIBILITY NCZ015>017-031-032-045>047-102-103-182300- NORTH COAST CITY SKY/WX TMP DP RH WIND PRES REMARKS EDENTON PTCLDY 66 53 62 S16 29.80F ELIZABETH CITY CLOUDY 63 52 67 S13 29.79F KITTY HAWK CLOUDY 61 52 71 S5 29.81F MANTEO PTCLDY 61 55 80 SW16 29.83F $$ NCZ045>047-081-094-103-104-182300- CENTRAL COAST CITY SKY/WX TMP DP RH WIND PRES REMARKS FRISCO PTCLDY 65 59 81 SW9 29.85F $$ NCZ095-097-098-100-101-182300- SOUTHERN COAST CITY SKY/WX TMP DP RH WIND PRES REMARKS BEAUFORT CLOUDY 65 59 81 S12 29.85F CEDAR ISLAND NOT AVBL JACKSONVILLE N/A 64 60 87 S5 29.83F PINEY ISLAND NOT AVBL WILMINGTON CLOUDY 67 57 70 S8 29.84F $$ NCZ011>013-027>030-043-044-078>080-089-090>093-098-182300- COASTAL PLAIN CITY SKY/WX TMP DP RH WIND PRES REMARKS AHOSKIE PTCLDY 64 51 62 S6 29.77S CLINTON PTCLDY 66 58 73 S8 29.81F ELIZABETHTOWN NOT AVBL GOLDSBORO CLOUDY 66 54 63 S9 29.78F GREENVILLE PTCLDY 66 50 55 S12G17 29.82F HAVELOCK NOT AVBL KENANSVILLE CLOUDY 66 55 68 S3 29.81F KINSTON CLOUDY 66 52 59 S10 29.81F NEW BERN MOCLDY 63 56 78 S9 29.84F RICHLANDS CLOUDY 64 57 78 S10 29.82F ROCKY MOUNT CLOUDY 64 53 67 S10 29.77F WASHINGTON CLOUDY 65 49 56 S8 29.81F WHITEVILLE PTCLDY 68 57 67 S8 29.82F $$ AMZ130-135-150-152-154-156-158-170-250-252-270-ANZ085-086-088-633-658-670-182300- MARINE OBSERVATIONS STATION/POSITION TIME TEMP WIND PRES WAVE SWELL AIR SEA DIR/SP/G HT/PER HT/PER (UTC) (F) (DEG/KT/KT) (MB) (FT/S) (FT/S) CHESAPEAKE LIGHT NOT AVBL 64 E VA BEACH 2150 63 62 210/ 21/ 25 1009.4 5/ 5 2/11 DUCK NOT AVBL 2 E DUCK 2200 60 N/A 2/12 2/12 OREGON INLET NOT AVBL 13E OREGON INLT 2148 61 N/A 3/12 2/12 HATTERAS CG NOT AVBL DIAMOND BUOY 2200 71 68 200/ 23/ 27 1011.3 CAPE LOOKOUT 2200 67 200/ 12/ 16 1011.3 BEAUFORT LAB NOT AVBL 30 SE NEW RVR IN 2108 71 70 200/ 16/ 21 1011.1 30 SE NEW RVR IN 2200 70 N/A 4/ 4 27 SE WRIGHTSVLE 2108 69 67 200/ 16/ 21 1010.8 5 SE WRIGHTSVLE 2108 66 64 200/ 8/ 10 1011.1 225 S CAPE HAT 2150 71 77 200/ 10/ 12 1015.1 5/ 9 5/ 9 41 SE CHARLESTON 2200 72 76 240/ 16/ 17 1011.3 $$

USA.gov is the U.S. government's official web portal to all federal, state and local government web resources and services.